Weather History for Battle Creek, MI

Change the Weather History Date:

Saturday, March 9, 2013

  Actual Average Record
Temperature  
Mean Temperature 34 °F 33 °F  
Max Temperature 42 °F 43 °F 59 °F (2002)
Min Temperature 25 °F 22 °F 10 °F (2003)
Degree Days  
Heating Degree Days 31 32  
Month to date heating degree days 337 303  
Since 1 July heating degree days 4932 5268  
Cooling Degree Days 0 0  
Month to date cooling degree days 0 0  
Year to date cooling degree days 0 0  
Moisture  
Dew Point 25 °F    
Average Humidity 65    
Maximum Humidity 75    
Minimum Humidity 55    
Precipitation  
Precipitation 0.00 in 0.06 in 0.75 in (1998)
Month to date precipitation T 0.52  
Year to date precipitation 4.73 3.52  
Sea Level Pressure  
Sea Level Pressure 30.22 in    
Wind  
Wind Speed 9 mph (SSE)    
Max Wind Speed 17 mph    
Max Gust Speed 25 mph    
Visibility 10 miles    
Events      
T = Trace of Precipitation, MM = Missing Value Source: NWS Daily Summary

Daily Weather History Graph

Daily Weather History Graph

Search for Another Location

Airport:

Trip Planner

Search our weather history database for the weather conditions in past years. The results will help you decide how hot, cold, wet, or windy it might be!

Date:

Astronomy

Mar. 09, 2013 Rise Set
Actual Time 7:02 AM EST 6:40 PM EST
Civil Twilight 6:34 AM EST 7:08 PM EST
Nautical Twilight 6:02 AM EST 7:41 PM EST
Astronomical Twilight 5:29 AM EST 8:14 PM EST
Moon 5:28 AM EST (3/9) 4:40 PM EST (3/9)
Length of Visible Light 12h 34m
Length of Day
11h 38m
Waning Crescent, 5% of the Moon is Illuminated
Mar 9
Waning Crescent
Mar 11
New
Mar 19
First Quarter
Mar 27
Full
Apr 3
Last Quarter

Hourly Weather History & Observations

Time (EST) Temp. Windchill Dew Point Humidity Pressure Visibility Wind Dir Wind Speed Gust Speed Precip Events Conditions
12:53 AM 28.9 °F 25.2 °F 19.0 °F 67% 30.40 in 10.0 mi South 3.5 mph - N/A   Clear
1:53 AM 30.0 °F 26.5 °F 18.0 °F 61% 30.40 in 10.0 mi SSE 3.5 mph - N/A   Clear
2:53 AM 28.9 °F 23.9 °F 19.0 °F 67% 30.37 in 10.0 mi SE 4.6 mph - N/A   Clear
3:53 AM 28.9 °F 23.9 °F 19.0 °F 67% 30.34 in 10.0 mi SSE 4.6 mph - N/A   Clear
4:53 AM 28.9 °F 22.8 °F 19.9 °F 69% 30.33 in 10.0 mi SE 5.8 mph - N/A   Clear
5:53 AM 30.0 °F 24.1 °F 21.0 °F 69% 30.34 in 10.0 mi SE 5.8 mph - N/A   Clear
6:53 AM 30.9 °F 24.3 °F 21.9 °F 69% 30.32 in 10.0 mi SE 6.9 mph - N/A   Clear
7:53 AM 30.9 °F 24.3 °F 21.9 °F 69% 30.34 in 10.0 mi SSE 6.9 mph - N/A   Clear
8:53 AM 34.0 °F 27.2 °F 21.9 °F 61% 30.33 in 10.0 mi SE 8.1 mph - N/A   Clear
9:53 AM 35.1 °F 25.5 °F 21.9 °F 59% 30.31 in 10.0 mi SE 15.0 mph - N/A   Clear
10:53 AM 36.0 °F 29.0 °F 24.1 °F 62% 30.32 in 10.0 mi South 9.2 mph - N/A   Clear
11:53 AM 37.0 °F 28.9 °F 26.1 °F 65% 30.30 in 10.0 mi South 12.7 mph - N/A   Partly Cloudy
12:53 PM 37.9 °F 30.5 °F 26.1 °F 62% 30.25 in 10.0 mi SE 11.5 mph - N/A   Mostly Cloudy
1:53 PM 39.9 °F 32.5 °F 26.1 °F 58% 30.19 in 10.0 mi SE 12.7 mph 21.9 mph N/A   Scattered Clouds
2:53 PM 41.0 °F 33.1 °F 27.0 °F 57% 30.15 in 10.0 mi SSE 15.0 mph 23.0 mph N/A   Clear
3:53 PM 41.0 °F 34.7 °F 28.0 °F 60% 30.13 in 10.0 mi SE 10.4 mph - N/A   Mostly Cloudy
4:53 PM 41.0 °F 34.7 °F 28.0 °F 60% 30.10 in 10.0 mi SE 10.4 mph - N/A   Overcast
5:53 PM 41.0 °F 35.2 °F 28.9 °F 62% 30.08 in 10.0 mi SSE 9.2 mph - N/A   Overcast
6:53 PM 39.9 °F 33.9 °F 30.0 °F 68% 30.08 in 10.0 mi SSE 9.2 mph - N/A   Overcast
7:53 PM 41.0 °F 35.2 °F 30.0 °F 65% 30.06 in 10.0 mi SSE 9.2 mph - N/A   Mostly Cloudy
8:53 PM 41.0 °F 34.3 °F 30.9 °F 67% 30.05 in 10.0 mi SSE 11.5 mph - N/A   Overcast
9:53 PM 41.0 °F 35.8 °F 30.9 °F 67% 30.03 in 10.0 mi SSE 8.1 mph - N/A   Partly Cloudy
10:53 PM 41.0 °F 35.8 °F 30.9 °F 67% 30.02 in 10.0 mi SSE 8.1 mph - N/A   Partly Cloudy
11:53 PM 41.0 °F 34.7 °F 32.0 °F 70% 29.99 in 10.0 mi SSE 10.4 mph - N/A   Clear